Weather in Kosilovo

Russia / Bryansk Oblast     53°42′30″N   33°52′08″E
temp.,
°C
wind,
m/s
gust,
m/s
humid.,
%
clouds,
%
prec.,
mm/h
press.,
hPa
HPBL,
m
28 september, tue
tue2800:00+7n2785100 0.0 1025264
03:00+7n3790100 0.0 1026289
06:00+7nne389295 0.1 1026400
09:00+8ne488984 0.2 1027558
12:00+9ne4680100 0.2 1028729
15:00+9ene367696 0.3 1029866
18:00+8ene3779100 0.0 1031532
21:00+7ene4981100 0.1 1032541
29 september, wed
wed2900:00+5ene378834 0.0 1034268
03:00+3ene369425 0.0 1035123
06:00+4ne358524 0.0 1035140
09:00+5ene357311 0.0 1036280
12:00+10e345511 0.0 1036997
15:00+11ene23499 0.0 10341146
18:00+8ne2267100 0.0 103411
21:00+5ene2276100 0.0 103512
30 september, thu
thu3000:00+4e1180100 0.0 103510
03:00+3ne118473 0.0 103610
06:00+3ne1185100 0.0 103610
09:00+6ene127131 0.0 1036163
12:00+11e22575 0.0 1035756
15:00+13e12535 0.0 10341107
18:00+9e11725 0.0 103410
21:00+6ese22865 0.0 103534
1 october, fri
fri100:00+5sse22895 0.0 103617
03:00+5sse12904 0.0 103611
06:00+4sse11914 0.0 103610
09:00+7sse22765 0.0 1036176
12:00+12sse22605 0.0 1036809
15:00+13s22555 0.0 10351070
18:00+9s22735 0.0 103411
21:00+7s12815 0.0 103510
2 october, sat
sat200:00+6s22885 0.0 103511
03:00+5sse22915 0.0 103512
06:00+5sse22925 0.0 103412
09:00+8sse24785 0.0 1034177
12:00+13s34575 0.0 1033737
15:00+14s34535 0.0 10321137
18:00+10sse22735 0.0 103218
21:00+8sse23835 0.0 103239